Weather History for Hatteras, NC

Change the Weather History Date:

Friday, January 7, 2011

  Actual Average Record
Temperature  
Mean Temperature 38 °F 46 °F  
Max Temperature 47 °F 52 °F 72 °F (1930)
Min Temperature 28 °F 39 °F 19 °F (2014)
Degree Days  
Heating Degree Days 27 19  
Month to date heating degree days 161 133  
Since 1 July heating degree days 1181 940  
Cooling Degree Days 0 0  
Month to date cooling degree days 0 0  
Year to date cooling degree days 0 0  
Moisture  
Dew Point 33 °F    
Average Humidity 77    
Maximum Humidity 96    
Minimum Humidity 58    
Precipitation  
Precipitation T in 0.17 in 2.50 in (1995)
Month to date precipitation T 1.15  
Year to date precipitation T 1.15  
Snow  
Snow 0.00 in - - ()
Month to date snowfall 0.0  
Since 1 July snowfall T  
Snow Depth 0.00 in    
Sea Level Pressure  
Sea Level Pressure 29.51 in    
Wind  
Wind Speed 5 mph (West)    
Max Wind Speed 14 mph    
Max Gust Speed 20 mph    
Visibility 9 miles    
Events Rain    
T = Trace of Precipitation, MM = Missing Value Source: NWS Daily Summary

Daily Weather History Graph

Daily Weather History Graph

Search for Another Location

Airport:

Trip Planner

Search our weather history database for the weather conditions in past years. The results will help you decide how hot, cold, wet, or windy it might be!

Date:

Astronomy

Jan. 07, 2011 Rise Set
Actual Time 7:11 AM EST 5:05 PM EST
Civil Twilight 6:43 AM EST 5:33 PM EST
Nautical Twilight 6:12 AM EST 6:05 PM EST
Astronomical Twilight 5:41 AM EST 6:36 PM EST
Moon 9:01 AM EST (1/7) 8:30 PM EST (1/7)
Length of Visible Light 10h 50m
Length of Day
9h 54m
Waxing Crescent, 11% of the Moon is Illuminated
Jan 7
Waxing Crescent
Jan 12
First Quarter
Jan 19
Full
Jan 26
Last Quarter
Feb 2
New

Hourly Weather History & Observations

Time (EST) Temp. Windchill Dew Point Humidity Pressure Visibility Wind Dir Wind Speed Gust Speed Precip Events Conditions
12:51 AM 30.9 °F - 28.9 °F 92% 29.59 in 7.0 mi Calm Calm - N/A   Clear
1:51 AM 30.0 °F - 28.0 °F 92% 29.57 in 6.0 mi Calm Calm - N/A   Clear
2:51 AM 28.9 °F - 27.0 °F 92% 29.55 in 5.0 mi Calm Calm - N/A   Clear
3:51 AM 30.9 °F 27.5 °F 28.0 °F 89% 29.54 in 5.0 mi WNW 3.5 mph - N/A   Clear
4:51 AM 33.1 °F 28.7 °F 30.9 °F 92% 29.55 in 9.0 mi WNW 4.6 mph - N/A   Scattered Clouds
5:51 AM 34.0 °F 28.8 °F 30.9 °F 89% 29.55 in 9.0 mi West 5.8 mph - N/A   Partly Cloudy
6:51 AM 36.0 °F 31.1 °F 34.0 °F 93% 29.55 in 10.0 mi WSW 5.8 mph - N/A   Overcast
7:51 AM 39.9 °F 35.1 °F 36.0 °F 86% 29.55 in 5.0 mi West 6.9 mph - N/A   Overcast
8:51 AM 43.0 °F 37.7 °F 37.0 °F 80% 29.54 in 8.0 mi WSW 9.2 mph - N/A   Mostly Cloudy
9:51 AM 43.0 °F 38.2 °F 36.0 °F 76% 29.55 in 10.0 mi West 8.1 mph - N/A   Clear
10:51 AM 44.1 °F 39.0 °F 35.1 °F 71% 29.53 in 10.0 mi West 9.2 mph - N/A   Clear
11:51 AM 45.0 °F 40.6 °F 35.1 °F 68% 29.50 in 10.0 mi West 8.1 mph - N/A   Clear
12:51 PM 45.0 °F 41.8 °F 34.0 °F 65% 29.47 in 10.0 mi West 5.8 mph 17.3 mph N/A   Clear
1:51 PM 45.0 °F 41.2 °F 33.1 °F 63% 29.46 in 10.0 mi West 6.9 mph - N/A   Clear
2:51 PM 46.0 °F 42.5 °F 32.0 °F 58% 29.47 in 10.0 mi West 6.9 mph - N/A   Clear
3:51 PM 46.0 °F 41.9 °F 33.1 °F 61% 29.46 in 10.0 mi West 8.1 mph - N/A   Clear
4:51 PM 43.0 °F 41.3 °F 33.1 °F 68% 29.47 in 10.0 mi West 3.5 mph - N/A   Partly Cloudy
5:51 PM 36.0 °F - 28.9 °F 76% 29.47 in 10.0 mi Calm Calm - N/A   Clear
6:51 PM 33.1 °F - 28.9 °F 85% 29.48 in 10.0 mi Calm Calm - N/A   Clear
7:51 PM 33.1 °F - 30.9 °F 92% 29.49 in 10.0 mi Calm Calm - N/A   Clear
8:51 PM 39.0 °F 36.8 °F 35.1 °F 86% 29.49 in 10.0 mi West 3.5 mph - N/A   Overcast
9:51 PM 44.1 °F 40.1 °F 36.0 °F 73% 29.49 in 9.0 mi West 6.9 mph - N/A   Overcast
10:51 PM 45.0 °F 39.7 °F 37.0 °F 74% 29.47 in 10.0 mi West 10.4 mph 17.3 mph N/A   Overcast
11:51 PM 44.1 °F 38.6 °F 37.9 °F 79% 29.45 in 10.0 mi WSW 10.4 mph - 0.00 in Rain Light Rain